When you browse on this site, cookies collect data to enhance your experience and personalize the content and advertising you see.
Visit our Privacy Policy to learn more. By continuing to use the site, you agree to this use of cookies and data.
  • In Hungary
  • List of Countries
  • For 7 days
  • Water Temperature
  • Satellite Maps
  • Weather Map
  • News
  • Weather Widgets
  • user-avatar
    Login

    Hourly Weather Karoi

    Today, 19 December, Wednesday

    Time Temperature Precipitation Wind Pressure Humidity
    00:00 +20°C° 0 mm 1 mps 652 mmHg 85%
    01:00 +20°C° 0 mm 1 mps 652 mmHg 85%
    02:00 +20°C° 0 mm 1 mps 652 mmHg 86%
    03:00 +20°C° 0.1 mm 1 mps 652 mmHg 87%
    04:00 +20°C° 0.1 mm 1 mps 652 mmHg 88%
    05:00 +19°C° 0.1 mm 1 mps 652 mmHg 89%
    06:00 +21°C° 0.1 mm 1 mps 653 mmHg 83%
    07:00 +23°C° 0.1 mm 2 mps 653 mmHg 77%
    08:00 +24°C° 0.1 mm 2 mps 654 mmHg 71%
    09:00 +26°C° 0.4 mm 2 mps 654 mmHg 65%
    10:00 +28°C° 0.4 mm 2 mps 654 mmHg 59%
    11:00 +29°C° 0.4 mm 2 mps 654 mmHg 52%
    12:00 +30°C° 0.1 mm 2 mps 654 mmHg 49%
    13:00 +31°C° 0.1 mm 1 mps 653 mmHg 47%
    14:00 +32°C° 0.1 mm 1 mps 653 mmHg 44%
    15:00 +31°C° 0 mm 1 mps 653 mmHg 45%
    16:00 +31°C° 0 mm 1 mps 652 mmHg 47%
    17:00 +30°C° 0 mm 1 mps 652 mmHg 49%
    18:00 +28°C° 0 mm 1 mps 652 mmHg 55%
    19:00 +26°C° 0 mm 1 mps 651 mmHg 61%
    20:00 +24°C° 0 mm 1 mps 651 mmHg 67%
    21:00 +24°C° 0 mm 1 mps 651 mmHg 69%
    22:00 +23°C° 0 mm 1 mps 652 mmHg 71%
    23:00 +23°C° 0 mm 1 mps 652 mmHg 73%

    Tomorrow, 20 December, Thursday

    Time Temperature Precipitation Wind Pressure Humidity
    00:00 +23°C° 0 mm 1 mps 652 mmHg 75%
    01:00 +22°C° 0 mm 1 mps 651 mmHg 76%
    02:00 +22°C° 0 mm 1 mps 651 mmHg 78%
    03:00 +22°C° 0 mm 1 mps 651 mmHg 79%
    04:00 +21°C° 0 mm 1 mps 651 mmHg 81%
    05:00 +21°C° 0 mm 1 mps 651 mmHg 82%
    06:00 +22°C° 0 mm 1 mps 652 mmHg 77%
    07:00 +24°C° 0 mm 2 mps 653 mmHg 72%
    08:00 +25°C° 0 mm 2 mps 654 mmHg 67%
    09:00 +27°C° 0.1 mm 2 mps 654 mmHg 61%
    10:00 +29°C° 0.1 mm 2 mps 654 mmHg 54%
    11:00 +30°C° 0.1 mm 2 mps 654 mmHg 48%
    12:00 +31°C° 0 mm 2 mps 654 mmHg 47%
    13:00 +31°C° 0 mm 2 mps 653 mmHg 45%
    14:00 +31°C° 0 mm 2 mps 653 mmHg 44%
    15:00 +31°C° 0 mm 2 mps 652 mmHg 45%
    16:00 +31°C° 0 mm 2 mps 652 mmHg 46%
    17:00 +30°C° 0 mm 1 mps 652 mmHg 47%
    18:00 +29°C° 0 mm 1 mps 652 mmHg 52%
    19:00 +27°C° 0 mm 1 mps 652 mmHg 56%
    20:00 +25°C° 0 mm 1 mps 652 mmHg 61%
    21:00 +25°C° 0 mm 1 mps 652 mmHg 63%
    22:00 +24°C° 0 mm 1 mps 652 mmHg 65%
    23:00 +24°C° 0 mm 2 mps 653 mmHg 67%

    Day after tomorrow, 21 December, Friday

    Time Temperature Precipitation Wind Pressure Humidity
    00:00 +23°C° 0.2 mm 2 mps 652 mmHg 71%
    01:00 +23°C° 0.2 mm 2 mps 652 mmHg 76%
    02:00 +21°C° 0.2 mm 2 mps 652 mmHg 81%
    03:00 +22°C° 0 mm 1 mps 652 mmHg 82%
    04:00 +21°C° 0 mm 1 mps 652 mmHg 84%
    05:00 +21°C° 0 mm 1 mps 652 mmHg 85%
    06:00 +21°C° 0 mm 2 mps 653 mmHg 79%
    07:00 +24°C° 0 mm 2 mps 654 mmHg 74%
    08:00 +25°C° 0 mm 2 mps 654 mmHg 68%
    09:00 +27°C° 0.1 mm 2 mps 655 mmHg 61%
    10:00 +28°C° 0.1 mm 3 mps 655 mmHg 54%
    11:00 +30°C° 0.1 mm 3 mps 655 mmHg 47%
    12:00 +31°C° 0 mm 3 mps 654 mmHg 43%
    13:00 +31°C° 0 mm 2 mps 654 mmHg 39%
    14:00 +32°C° 0 mm 2 mps 653 mmHg 35%
    15:00 +32°C° 0 mm 2 mps 653 mmHg 36%
    16:00 +31°C° 0 mm 2 mps 652 mmHg 38%
    17:00 +30°C° 0 mm 2 mps 651 mmHg 40%
    18:00 +28°C° 0 mm 2 mps 652 mmHg 46%
    19:00 +27°C° 0 mm 1 mps 652 mmHg 52%
    20:00 +25°C° 0 mm 1 mps 652 mmHg 58%
    21:00 +24°C° 0 mm 1 mps 652 mmHg 60%
    22:00 +24°C° 0 mm 1 mps 652 mmHg 63%
    23:00 +23°C° 0 mm 2 mps 653 mmHg 65%

    22 December, Saturday

    Time Temperature Precipitation Wind Pressure Humidity
    00:00 +23°C° 0 mm 2 mps 652 mmHg 69%
    01:00 +21°C° 0 mm 2 mps 652 mmHg 73%
    02:00 +20°C° 0 mm 2 mps 652 mmHg 77%
    03:00 +20°C° 0 mm 2 mps 652 mmHg 80%
    04:00 +21°C° 0 mm 1 mps 652 mmHg 82%
    05:00 +20°C° 0 mm 1 mps 652 mmHg 85%
    06:00 +21°C° 0 mm 2 mps 653 mmHg 78%
    07:00 +23°C° 0 mm 2 mps 654 mmHg 72%
    08:00 +24°C° 0 mm 3 mps 654 mmHg 65%
    09:00 +26°C° 0 mm 3 mps 655 mmHg 59%
    10:00 +28°C° 0 mm 3 mps 655 mmHg 53%
    11:00 +29°C° 0 mm 2 mps 655 mmHg 47%
    12:00 +30°C° 0.2 mm 2 mps 654 mmHg 46%
    13:00 +30°C° 0.2 mm 2 mps 653 mmHg 46%
    14:00 +30°C° 0.2 mm 2 mps 652 mmHg 45%
    15:00 +30°C° 0.1 mm 2 mps 652 mmHg 46%
    16:00 +29°C° 0.1 mm 2 mps 652 mmHg 47%
    17:00 +29°C° 0.1 mm 1 mps 651 mmHg 48%
    18:00 +27°C° 0 mm 1 mps 651 mmHg 53%
    19:00 +26°C° 0 mm 1 mps 651 mmHg 59%
    20:00 +24°C° 0 mm 1 mps 651 mmHg 65%
    21:00 +24°C° 0 mm 1 mps 651 mmHg 67%
    22:00 +23°C° 0 mm 1 mps 652 mmHg 68%
    23:00 +23°C° 0 mm 1 mps 652 mmHg 70%

    23 December, Sunday

    Time Temperature Precipitation Wind Pressure Humidity
    00:00 +22°C° 0 mm 1 mps 651 mmHg 72%
    01:00 +22°C° 0 mm 1 mps 651 mmHg 73%
    02:00 +22°C° 0 mm 1 mps 651 mmHg 75%
    03:00 +21°C° 0 mm 1 mps 651 mmHg 77%
    04:00 +21°C° 0 mm 1 mps 651 mmHg 78%
    05:00 +21°C° 0 mm 1 mps 651 mmHg 80%
    06:00 +21°C° 0 mm 2 mps 652 mmHg 76%
    07:00 +23°C° 0 mm 2 mps 653 mmHg 73%
    08:00 +24°C° 0 mm 3 mps 654 mmHg 69%
    09:00 +26°C° 0.2 mm 3 mps 654 mmHg 64%
    10:00 +27°C° 0.2 mm 2 mps 654 mmHg 59%
    11:00 +29°C° 0.2 mm 2 mps 654 mmHg 54%
    12:00 +29°C° 0.8 mm 2 mps 654 mmHg 52%
    13:00 +29°C° 0.8 mm 1 mps 653 mmHg 50%
    14:00 +29°C° 0.8 mm 1 mps 652 mmHg 49%
    15:00 +29°C° 0.2 mm 1 mps 652 mmHg 49%
    16:00 +29°C° 0.2 mm 1 mps 652 mmHg 49%
    17:00 +29°C° 0.2 mm 1 mps 652 mmHg 49%
    18:00 +27°C° 0 mm 1 mps 652 mmHg 54%
    19:00 +26°C° 0 mm 1 mps 651 mmHg 59%
    20:00 +24°C° 0 mm 1 mps 651 mmHg 65%
    21:00 +23°C° 0 mm 1 mps 651 mmHg 67%
    22:00 +23°C° 0 mm 1 mps 652 mmHg 69%
    23:00 +22°C° 0 mm 1 mps 652 mmHg 71%

    24 December, Monday

    Time Temperature Precipitation Wind Pressure Humidity
    00:00 +22°C° 0 mm 1 mps 652 mmHg 73%
    01:00 +22°C° 0 mm 1 mps 651 mmHg 75%
    02:00 +21°C° 0 mm 1 mps 651 mmHg 76%
    03:00 +21°C° 0 mm 1 mps 651 mmHg 77%
    04:00 +21°C° 0 mm 1 mps 651 mmHg 78%
    05:00 +20°C° 0 mm 1 mps 652 mmHg 79%
    06:00 +21°C° 0 mm 2 mps 652 mmHg 75%
    07:00 +22°C° 0 mm 3 mps 653 mmHg 70%
    08:00 +25°C° 0 mm 3 mps 654 mmHg 65%
    09:00 +26°C° 0 mm 3 mps 654 mmHg 59%
    10:00 +28°C° 0 mm 3 mps 655 mmHg 53%
    11:00 +30°C° 0 mm 2 mps 655 mmHg 47%
    12:00 +31°C° 0 mm 2 mps 654 mmHg 45%
    13:00 +31°C° 0 mm 2 mps 654 mmHg 42%
    14:00 +32°C° 0 mm 1 mps 653 mmHg 40%
    15:00 +32°C° 0 mm 1 mps 652 mmHg 40%
    16:00 +31°C° 0 mm 1 mps 652 mmHg 40%
    17:00 +31°C° 0 mm 1 mps 652 mmHg 41%
    18:00 +29°C° 0 mm 1 mps 651 mmHg 46%
    19:00 +27°C° 0 mm 1 mps 651 mmHg 51%
    20:00 +25°C° 0 mm 1 mps 651 mmHg 56%
    21:00 +25°C° 0 mm 1 mps 651 mmHg 58%
    22:00 +24°C° 0 mm 1 mps 651 mmHg 59%
    23:00 +24°C° 0 mm 1 mps 651 mmHg 61%
    Show more